Greenwood, MS

2:33 PM CDT on September 20, 2017 (GMT -0500)
Greenwood-Leflore

Weather History for KGWO - March, 2013

Change the Weather History Date:

Sunday, March 24, 2013

  Actual Average Record
Temperature  
Mean Temperature 47 °F 58 °F  
Max Temperature 56 °F 69 °F 86 °F (2007)
Min Temperature 38 °F 46 °F 30 °F (1968)
Degree Days  
Heating Degree Days 18 8  
Month to date heating degree days 378 264  
Since 1 July heating degree days 2458 2495  
Cooling Degree Days 0 1  
Month to date cooling degree days 0 18  
Year to date cooling degree days 12 23  
Moisture  
Dew Point 45 °F    
Average Humidity 79    
Maximum Humidity 100    
Minimum Humidity 57    
Precipitation  
Precipitation 0.02 in 0.14 in 1.68 in (1973)
Month to date precipitation 4.34 3.26  
Year to date precipitation 16.80 12.20  
Sea Level Pressure  
Sea Level Pressure 29.74 in    
Wind  
Wind Speed 11 mph (West)    
Max Wind Speed 24 mph    
Max Gust Speed 35 mph    
Visibility 7 miles    
Events      
T = Trace of Precipitation, MM = Missing Value Source: NWS Daily Summary

Daily Weather History Graph

Daily Weather History Graph

Search for Another Location

Airport or City:

Trip Planner

Search our weather history database for the weather conditions in past years. The results will help you decide how hot, cold, wet, or windy it might be!

Date:

Astronomy

Mar. 24, 2013 Rise Set
Actual Time 6:58 AM CDT 7:15 PM CDT
Civil Twilight 6:33 AM CDT 7:39 PM CDT
Nautical Twilight 6:04 AM CDT 8:09 PM CDT
Astronomical Twilight 5:35 AM CDT 8:38 PM CDT
Moon 4:49 PM CDT (3/24) 5:01 AM CDT (3/24)
Length of Visible Light 13h 06m
Length of Day
12h 16m
Waxing Gibbous, 92% of the Moon is Illuminated
Mar 24
Waxing Gibbous
Mar 27
Full
Apr 2
Last Quarter
Apr 10
New
Apr 18
First Quarter

Hourly Weather History & Observations

Time (CDT) Temp. Windchill Dew Point Humidity Pressure Visibility Wind Dir Wind Speed Gust Speed Precip Events Conditions
12:51 AM 55.4 °F - 53.6 °F 94% 29.62 in 10.0 mi ESE 3.5 mph - 0.05 in   Mostly Cloudy
12:53 AM 55.9 °F - 54.0 °F 93% 29.62 in 10.0 mi Calm Calm - 0.05 in   Mostly Cloudy
1:14 AM 55.4 °F - 53.6 °F 94% 29.61 in 10.0 mi Calm Calm - N/A   Overcast
1:53 AM 54.0 °F - 54.0 °F 100% 29.62 in 10.0 mi West 4.6 mph - 0.01 in   Mostly Cloudy
2:19 AM 53.6 °F - 53.6 °F 100% 29.62 in 6.0 mi West 5.8 mph - N/A   Overcast
2:46 AM 53.6 °F - 53.6 °F 100% 29.61 in 6.0 mi Variable 3.5 mph - N/A   Overcast
2:53 AM 54.0 °F - 54.0 °F 100% 29.61 in 6.0 mi Calm Calm - N/A   Overcast
3:53 AM 53.1 °F - 53.1 °F 100% 29.61 in 5.0 mi Calm Calm - N/A   Overcast
4:53 AM 53.1 °F - 53.1 °F 100% 29.67 in 2.5 mi WNW 4.6 mph - N/A   Overcast
5:04 AM 53.6 °F - 51.8 °F 94% 29.65 in 1.2 mi NW 4.6 mph - N/A   Overcast
5:53 AM 52.0 °F - 52.0 °F 100% 29.66 in 2.5 mi NW 3.5 mph - N/A   Overcast
6:48 AM 51.8 °F - 51.8 °F 100% 29.66 in 4.0 mi WNW 3.5 mph - N/A   Overcast
6:53 AM 52.0 °F - 52.0 °F 100% 29.67 in 4.0 mi WNW 4.6 mph - N/A   Overcast
7:16 AM 51.8 °F - 51.8 °F 100% 29.68 in 2.5 mi West 5.8 mph - N/A   Overcast
7:48 AM 51.8 °F - 51.8 °F 100% 29.69 in 1.8 mi West 6.9 mph - N/A   Overcast
7:53 AM 52.0 °F - 52.0 °F 100% 29.70 in 2.0 mi West 8.1 mph - N/A   Overcast
8:06 AM 51.8 °F - 51.8 °F 100% 29.69 in 1.8 mi West 4.6 mph - N/A   Overcast
8:15 AM 51.8 °F - 51.8 °F 100% 29.69 in 3.0 mi West 5.8 mph - N/A   Overcast
8:33 AM 51.8 °F - 51.8 °F 100% 29.69 in 2.5 mi WSW 5.8 mph - N/A   Overcast
8:50 AM 51.8 °F - 51.8 °F 100% 29.67 in 4.0 mi SSW 8.1 mph - N/A   Overcast
8:53 AM 52.0 °F - 51.1 °F 97% 29.66 in 5.0 mi SW 6.9 mph - N/A   Overcast
9:51 AM 51.8 °F - 50.0 °F 94% 29.70 in 9.0 mi West 8.1 mph - N/A   Overcast
9:53 AM 51.1 °F - 50.0 °F 96% 29.70 in 9.0 mi West 10.4 mph - N/A   Overcast
10:53 AM 50.0 °F - 46.9 °F 89% 29.73 in 10.0 mi West 15.0 mph 23.0 mph 0.01 in   Overcast
11:25 AM 50.0 °F - 46.4 °F 87% 29.73 in 10.0 mi West 10.4 mph 19.6 mph 0.00 in   Overcast
11:53 AM 51.1 °F - 46.0 °F 83% 29.75 in 10.0 mi West 15.0 mph 24.2 mph 0.00 in   Overcast
12:05 PM 51.8 °F - 44.6 °F 76% 29.74 in 10.0 mi West 15.0 mph 24.2 mph N/A   Overcast
12:49 PM 51.8 °F - 42.8 °F 71% 29.76 in 10.0 mi West 19.6 mph 29.9 mph N/A   Overcast
12:53 PM 52.0 °F - 42.1 °F 69% 29.75 in 10.0 mi West 15.0 mph 28.8 mph N/A   Overcast
1:53 PM 50.0 °F - 37.9 °F 63% 29.78 in 10.0 mi WNW 19.6 mph 34.5 mph N/A   Overcast
2:53 PM 46.0 °F 38.0 °F 33.1 °F 61% 29.81 in 10.0 mi West 21.9 mph 33.4 mph N/A   Overcast
3:53 PM 46.0 °F 39.3 °F 32.0 °F 58% 29.83 in 10.0 mi West 16.1 mph 27.6 mph N/A   Overcast
4:53 PM 46.9 °F - 33.1 °F 59% 29.85 in 10.0 mi NW 12.7 mph 24.2 mph N/A   Overcast
5:53 PM 45.0 °F 37.6 °F 30.0 °F 56% 29.89 in 10.0 mi WNW 17.3 mph 28.8 mph N/A   Overcast
6:53 PM 44.6 °F 38.4 °F 30.2 °F 57% 29.92 in 10.0 mi WNW 12.7 mph 27.6 mph N/A   Overcast
7:53 PM 44.1 °F 37.1 °F 30.0 °F 58% 29.95 in 10.0 mi WNW 15.0 mph 21.9 mph N/A   Overcast
8:53 PM 43.0 °F 36.0 °F 28.0 °F 56% 29.98 in 10.0 mi WNW 13.8 mph 23.0 mph N/A   Overcast
9:53 PM 41.0 °F 35.2 °F 28.0 °F 60% 30.00 in 10.0 mi WNW 9.2 mph 24.2 mph N/A   Overcast
10:53 PM 39.9 °F 33.4 °F 28.0 °F 63% 30.01 in 10.0 mi NW 10.4 mph 20.7 mph N/A   Partly Cloudy
11:53 PM 39.0 °F 34.0 °F 28.0 °F 65% 30.03 in 10.0 mi NW 6.9 mph - N/A   Mostly Cloudy